FW8883 Weather Reports


time (UTC)temp
C
wind
direction
speed
KPH
gust
KPH
rain 1hr
cm
rain 24hr
cm
rain mn
cm
humidity
%
barometer
mb
20260505022532 16 62 1.6 6.4 0.00 0.00 0.00 54 1010.2
20260505022033 16 219 1.6 6.4 0.00 0.00 0.00 54 1010.4
20260505021530 16 148 1.6 6.4 0.00 0.00 0.00 54 1010.4
20260505021023 16 148 1.6 6.4 0.00 0.00 0.00 54 1010.4
20260505020812 16 115 1.6 4.8 0.00 0.00 0.00 53 1010.4
20260505020012 16 213 1.6 9.7 0.00 0.00 0.00 53 1010.1
20260505015505 16 233 1.6 9.7 0.00 0.00 0.00 53 1010.1
20260505015002 16 189 1.6 6.4 0.00 0.00 0.00 52 1010.1
20260505014503 16 107 1.6 6.4 0.00 0.00 0.00 52 1010.1
20260505014003 16 157 1.6 6.4 0.00 0.00 0.00 52 1010.0
20260505013758 17 204 3.2 11.3 0.00 0.00 0.00 52 1009.9
20260505013002 17 142 3.2 14.5 0.00 0.00 0.00 51 1009.8
20260505012503 17 120 3.2 14.5 0.00 0.00 0.00 50 1009.8
20260505012000 17 211 1.6 9.7 0.00 0.00 0.00 51 1009.6
20260505011758 17 15 3.2 9.7 0.00 0.00 0.00 50 1009.6
20260505011002 17 155 3.2 9.7 0.00 0.00 0.00 50 1009.4
20260505010501 17 143 1.6 8.0 0.00 0.00 0.00 50 1009.4
20260505010000 17 165 3.2 8.0 0.00 0.00 0.00 49 1009.3
20260505005750 17 133 3.2 8.0 0.00 0.00 0.00 49 1009.2
20260505005001 17 119 3.2 8.0 0.00 0.00 0.00 49 1009.0
20260505004503 17 169 1.6 8.0 0.00 0.00 0.00 49 1008.9
20260505004000 17 84 0.0 4.8 0.00 0.00 0.00 49 1008.8
20260505003759 17 327 0.0 1.6 0.00 0.00 0.00 46 1008.5
20260505003005 17 327 0.0 1.6 0.00 0.00 0.00 47 1008.4
20260505002500 17 327 0.0 1.6 0.00 0.00 0.00 46 1008.3
20260505001954 18 327 0.0 1.6 0.00 0.00 0.00 46 1008.1
20260505001447 18 327 0.0 1.6 0.00 0.00 0.00 46 1008.1
20260505000942 18 327 0.0 1.6 0.00 0.00 0.00 45 1008.0
20260505000436 18 327 0.0 3.2 0.00 0.00 0.00 44 1007.8
20260504235934 18 176 0.0 3.2 0.00 0.00 0.00 44 1007.8
20260504235439 18 142 0.0 1.6 0.00 0.00 0.00 43 1007.8
20260504235117 19 142 0.0 4.8 0.00 0.00 0.00 41 1007.6
20260504235051 19 142 0.0 1.6 0.00 0.00 0.00 43 1007.7
20260504234507 19 142 0.0 4.8 0.00 0.00 0.00 41 1007.6
20260504233432 20 239 0.0 1.6 0.00 0.00 0.00 39 1007.5
20260504232932 20 239 0.0 11.3 0.00 0.00 0.00 39 1007.4
20260504232433 20 239 0.0 11.3 0.00 0.00 0.00 38 1007.4
20260504231932 20 255 0.0 4.8 0.00 0.00 0.00 38 1007.3
20260504231430 20 255 1.6 4.8 0.00 0.00 0.00 38 1007.2
20260504230931 20 248 1.6 4.8 0.00 0.00 0.00 38 1007.2
20260504230724 20 71 1.6 4.8 0.00 0.00 0.00 39 1007.1
20260504225930 20 37 1.6 3.2 0.00 0.00 0.00 38 1007.0
20260504225430 20 168 1.6 6.4 0.00 0.00 0.00 38 1007.0
20260504224930 20 140 1.6 6.4 0.00 0.00 0.00 38 1006.8
20260504224430 20 248 1.6 6.4 0.00 0.00 0.00 39 1006.9
20260504223930 20 140 1.6 9.7 0.00 0.00 0.00 40 1006.8
20260504223429 20 290 1.6 9.7 0.00 0.03 0.00 41 1006.7
20260504222921 20 175 1.6 6.4 0.00 0.03 0.00 39 1006.7
20260504222417 20 197 1.6 6.4 0.00 0.03 0.00 38 1006.7
20260504221909 21 244 1.6 8.0 0.00 0.03 0.00 36 1006.7
20260504221408 20 223 1.6 8.0 0.00 0.03 0.00 37 1006.7
20260504220908 21 244 1.6 6.4 0.00 0.03 0.00 36 1006.7
20260504220409 21 30 1.6 6.4 0.00 0.03 0.00 38 1006.8
20260504215908 21 265 1.6 8.0 0.00 0.03 0.00 37 1006.7
20260504215408 21 188 1.6 8.0 0.00 0.03 0.00 35 1006.8
20260504214908 21 234 1.6 9.7 0.00 0.03 0.00 36 1006.7
20260504214708 21 227 1.6 9.7 0.00 0.03 0.00 36 1006.7
20260504213906 21 261 3.2 8.0 0.00 0.03 0.00 35 1006.6
20260504213406 21 202 1.6 9.7 0.00 0.03 0.00 36 1006.8
20260504212907 21 336 1.6 9.7 0.00 0.03 0.00 35 1006.7
20260504212701 21 275 3.2 16.1 0.00 0.03 0.00 35 1006.8
20260504211906 21 252 3.2 16.1 0.00 0.03 0.00 37 1006.8
20260504211406 21 198 3.2 11.3 0.00 0.03 0.00 37 1006.8
20260504210908 21 188 3.2 11.3 0.00 0.03 0.00 34 1006.7
20260504210407 22 63 3.2 17.7 0.00 0.03 0.00 37 1006.7
20260504210159 21 241 3.2 17.7 0.00 0.03 0.00 35 1006.7
20260504205407 21 248 3.2 9.7 0.00 0.03 0.00 36 1006.7
20260504204907 21 93 3.2 14.5 0.00 0.03 0.00 37 1006.6
20260504204404 21 252 1.6 14.5 0.00 0.03 0.00 37 1006.7
20260504203904 21 227 3.2 12.9 0.00 0.03 0.00 36 1006.6
20260504203658 21 162 3.2 12.9 0.00 0.03 0.00 34 1006.6
20260504202904 21 176 3.2 12.9 0.00 0.03 0.00 35 1006.7
20260504202405 21 100 3.2 17.7 0.00 0.03 0.00 36 1006.7
20260504201904 21 138 3.2 17.7 0.00 0.03 0.00 34 1006.7
20260504201403 21 157 3.2 16.1 0.00 0.03 0.00 36 1006.6
20260504200906 21 105 3.2 16.1 0.00 0.03 0.00 33 1006.7
20260504200402 21 116 3.2 11.3 0.00 0.03 0.00 34 1006.8
20260504195902 22 111 3.2 9.7 0.00 0.03 0.00 32 1006.6
20260504195402 22 90 3.2 9.7 0.00 0.03 0.00 35 1006.7
20260504194903 22 246 3.2 17.7 0.00 0.03 0.00 35 1006.8
20260504194401 22 146 3.2 17.7 0.00 0.03 0.00 34 1006.6
20260504193903 22 99 3.2 19.3 0.00 0.03 0.00 35 1006.6
20260504193403 22 150 3.2 19.3 0.00 0.03 0.00 32 1006.7
20260504193157 22 186 3.2 11.3 0.00 0.03 0.00 34 1006.9
20260504192358 22 249 3.2 11.3 0.00 0.03 0.00 32 1006.8
20260504191855 22 130 3.2 9.7 0.00 0.03 0.00 32 1006.8
20260504191356 22 77 3.2 16.1 0.00 0.03 0.00 34 1006.8
20260504190857 22 227 3.2 16.1 0.00 0.03 0.00 33 1006.9
20260504190356 22 246 1.6 11.3 0.00 0.03 0.00 32 1007.0
20260504190144 21 210 3.2 12.9 0.00 0.03 0.00 34 1006.9
20260504185656 22 92 3.2 12.9 0.00 0.03 0.00 34 1007.0
20260504184856 21 240 3.2 12.9 0.00 0.03 0.00 37 1007.1
20260504184357 22 90 3.2 14.5 0.00 0.03 0.00 32 1007.0
20260504184120 22 227 3.2 14.5 0.00 0.03 0.00 33 1007.2
20260504183357 22 147 3.2 14.5 0.00 0.03 0.00 38 1007.2
20260504182858 22 86 3.2 14.5 0.00 0.03 0.00 34 1007.5
20260504182357 22 100 3.2 12.9 0.00 0.03 0.00 35 1007.2
20260504181958 22 232 3.2 20.9 0.00 0.03 0.00 33 1007.2
20260504181938 22 37 3.2 20.9 0.00 0.03 0.00 35 1007.2
20260504180855 22 84 3.2 16.1 0.00 0.03 0.00 32 1007.5
20260504180357 22 180 4.8 16.1 0.00 0.03 0.00 36 1007.4
20260504175954 22 124 3.2 14.5 0.00 0.03 0.00 33 1007.4
20260504175935 22 101 3.2 14.5 0.00 0.03 0.00 35 1007.1
20260504175149 22 14 3.2 24.1 0.00 0.03 0.00 33 1007.4
20260504174357 21 132 3.2 24.1 0.00 0.03 0.00 34 1007.4
20260504173955 21 219 3.2 12.9 0.00 0.03 0.00 36 1007.7
20260504173936 21 165 3.2 11.3 0.00 0.03 0.00 38 1007.6
20260504172852 21 65 4.8 19.3 0.00 0.03 0.00 36 1007.6
20260504172353 21 125 4.8 19.3 0.00 0.03 0.00 36 1007.6
20260504171853 22 213 3.2 9.7 0.00 0.03 0.00 35 1007.6
20260504171352 22 146 3.2 24.1 0.00 0.03 0.00 38 1007.6
20260504170851 21 37 4.8 24.1 0.00 0.03 0.00 35 1007.6
20260504170352 21 191 3.2 12.9 0.00 0.03 0.00 36 1007.8
20260504170239 21 95 3.2 12.9 0.00 0.03 0.00 34 1007.9
20260504170234 21 103 4.8 12.9 0.00 0.03 0.00 36 1007.9
20260504150834 18 219 4.8 20.9 0.00 0.03 0.00 42 1008.5
20260504150625 18 265 3.2 20.9 0.00 0.03 0.00 40 1008.5
20260504140908 16 204 3.2 16.1 0.00 0.05 0.00 45 1009.7
20260504140849 17 76 4.8 14.5 0.00 0.05 0.00 44 1009.6
20260504130755 14 77 1.6 9.7 0.00 0.05 0.00 52 1010.1
20260504130248 14 159 1.6 9.7 0.00 0.05 0.00 56 1010.1
20260504120231 9 136 1.6 4.8 0.00 0.05 0.00 65 1010.8
20260504110217 7 71 0.0 1.6 0.00 0.05 0.00 71 1011.1
20260504100203 5 312 0.0 1.6 0.00 0.05 0.00 74 1010.7
20260504090133 5 333 0.0 0.0 0.00 0.05 0.00 78 1010.7
20260504081630 4 338 0.0 0.0 0.00 0.05 0.00 82 1010.6
20260504081130 4 338 0.0 0.0 0.00 0.05 0.00 82 1010.7
20260504080631 4 338 0.0 0.0 0.00 0.05 0.00 83 1010.6
20260504080131 4 338 0.0 0.0 0.00 0.05 0.00 83 1010.6
20260504050541 2 338 0.0 0.0 0.00 0.05 0.00 81 1010.8
20260504045536 2 338 0.0 0.0 0.00 0.05 0.00 80 1010.8
20260504045036 2 338 0.0 0.0 0.00 0.05 0.00 80 1010.8
20260504044536 2 338 0.0 0.0 0.00 0.05 0.00 80 1010.8
20260504044036 2 338 0.0 0.0 0.00 0.05 0.00 79 1010.8
20260504043536 2 338 0.0 0.0 0.00 0.08 0.00 79 1010.8
20260504043036 2 338 0.0 0.0 0.00 0.08 0.00 79 1010.7
20260504042535 2 338 0.0 0.0 0.00 0.08 0.00 78 1010.8
20260504042035 2 338 0.0 0.0 0.00 0.08 0.00 78 1010.7
20260504041536 2 338 0.0 0.0 0.00 0.08 0.00 78 1010.6
20260504041319 2 338 0.0 0.0 0.00 0.08 0.00 78 1010.6
20260504040530 2 338 0.0 0.0 0.00 0.08 0.00 78 1010.6
20260504040031 2 338 0.0 0.0 0.00 0.08 0.00 78 1010.5
20260504035530 3 338 0.0 0.0 0.00 0.08 0.08 78 1010.6
20260504035031 3 338 0.0 0.0 0.00 0.08 0.08 78 1010.6
20260504034530 3 338 0.0 0.0 0.00 0.08 0.08 77 1010.5
20260504034031 3 338 0.0 0.0 0.00 0.08 0.08 77 1010.6
20260504033824 3 338 0.0 0.0 0.00 0.08 0.08 77 1010.6
20260504033324 3 338 0.0 0.0 0.00 0.08 0.08 77 1010.5
20260504032823 3 338 0.0 0.0 0.00 0.08 0.08 76 1010.5
20260504032032 3 338 0.0 0.0 0.00 0.08 0.08 76 1010.4
20260504031533 3 338 0.0 0.0 0.00 0.08 0.08 76 1010.2
20260504031032 3 338 0.0 0.0 0.00 0.08 0.08 75 1010.2
20260504030532 3 338 0.0 0.0 0.00 0.08 0.08 74 1010.2
20260504030319 3 338 0.0 0.0 0.00 0.08 0.08 74 1010.2
20260504025531 3 338 0.0 0.0 0.00 0.08 0.08 74 1010.2
20260504025323 3 338 0.0 0.0 0.00 0.08 0.08 74 1010.4
20260504024529 4 338 0.0 0.0 0.00 0.08 0.08 73 1010.2
20260504024031 4 338 0.0 0.0 0.00 0.08 0.08 73 1010.2
20260504023524 4 338 0.0 0.0 0.00 0.08 0.08 72 1010.4
20260504023020 4 338 0.0 0.0 0.00 0.08 0.08 72 1010.2